Le nostre stazioni meteo in Italia

Pubblicità
Il mio iltempo24.it
Sciacca, Italia (16436): Temperatura & dewpoint: 09.10.2019 12:00:00 - 15.10.2019 12:00:00 (CEST)Sciacca, Italia (16436): velocità del vento: 09.10.2019 12:00:00 - 15.10.2019 12:00:00 (CEST)Sciacca, Italia (16436): direzione del vento: 09.10.2019 12:00:00 - 15.10.2019 12:00:00 (CEST)Sciacca, Italia (16436): reduced air pressure: 09.10.2019 12:00:00 - 15.10.2019 12:00:00 (CEST)Sciacca, Italia (16436): precipitazioni: 09.10.2019 12:00:00 - 15.10.2019 12:00:00 (CEST)
Data & Tempo tt [°C] td [°C] ff [km/h] ff [kn] dd ppp [hPa] rr [mm]
15.10.2019 12:00:00 - - - - - - -
15.10.2019 11:00:00 23,3 21,0 11 6 ESE 1029,1 -
15.10.2019 10:00:00 21,6 20,2 8 4 E 1029,4 -
15.10.2019 09:00:00 20,7 19,6 8 4 ENE 1029,4 -
15.10.2019 08:00:00 19,4 18,4 9 5 NE 1029,1 -
15.10.2019 07:00:00 19,6 18,6 11 6 NE 1029,2 -
15.10.2019 06:00:00 19,7 18,6 5 3 ENE 1029,0 -
15.10.2019 05:00:00 19,8 18,7 5 3 ENE 1029,1 -
15.10.2019 04:00:00 19,8 18,7 9 5 ENE 1029,1 -
15.10.2019 03:00:00 19,8 18,7 8 4 ENE 1029,3 -
15.10.2019 02:00:00 19,9 18,8 8 4 ENE 1029,6 0,0
15.10.2019 01:00:00 19,9 18,8 8 4 ENE 1029,9 -
15.10.2019 00:00:00 19,8 18,9 8 4 ENE 1030,1 -
14.10.2019 23:00:00 19,8 18,9 8 4 ENE 1030,3 -
14.10.2019 22:00:00 20,0 19,1 8 4 ENE 1030,3 -
14.10.2019 21:00:00 19,8 18,9 4 2 NE 1030,2 -
14.10.2019 20:00:00 20,0 18,9 4 2 NE 1030,1 -
14.10.2019 19:00:00 20,9 19,8 4 2 ESE 1029,7 -
14.10.2019 18:00:00 21,6 20,5 9 5 ESE 1029,4 -
14.10.2019 17:00:00 22,1 20,9 9 5 SE 1029,6 -
14.10.2019 16:00:00 23,0 21,2 9 5 SE 1029,7 -
14.10.2019 15:00:00 23,8 22,0 9 5 SSE 1030,1 -
14.10.2019 14:00:00 24,0 21,5 13 7 SSE 1030,5 0,0
14.10.2019 13:00:00 23,8 21,1 11 6 SE 1031,1 -
14.10.2019 12:00:00 23,2 20,5 11 6 S 1032,0 -
14.10.2019 11:00:00 23,8 19,0 8 4 SE 1032,1 -
14.10.2019 10:00:00 22,4 19,5 8 4 E 1032,4 -
14.10.2019 09:00:00 19,9 18,5 5 3 NE 1032,7 -
14.10.2019 08:00:00 18,3 17,1 8 4 NE 1032,3 -
14.10.2019 07:00:00 17,9 16,9 5 3 NNE 1032,4 -
14.10.2019 06:00:00 18,3 17,3 5 3 NE 1032,3 -
14.10.2019 05:00:00 18,1 17,2 5 3 NNE 1032,6 -
14.10.2019 04:00:00 18,1 17,4 5 3 NNE 1032,3 -
14.10.2019 03:00:00 18,4 17,9 8 4 NNE 1032,7 -
14.10.2019 02:00:00 18,4 18,0 5 3 NNE 1033,1 0,0
14.10.2019 01:00:00 18,7 18,3 8 4 NNE 1033,1 -
14.10.2019 00:00:00 18,9 18,5 5 3 NNE 1033,2 -
13.10.2019 23:00:00 19,1 18,7 8 4 NNE 1033,2 -
13.10.2019 22:00:00 19,6 19,1 5 3 NE 1033,1 -
13.10.2019 21:00:00 20,1 19,4 0 0 N 1032,7 -
13.10.2019 20:00:00 20,3 19,2 0 0 N 1032,5 -
13.10.2019 19:00:00 20,9 19,7 0 0 N 1031,9 -
13.10.2019 18:00:00 22,2 20,8 2 1 S 1031,7 -
13.10.2019 17:00:00 23,1 21,3 2 1 S 1031,7 -
13.10.2019 16:00:00 24,1 21,4 5 3 SSE 1031,6 -
13.10.2019 15:00:00 24,0 20,9 11 6 S 1031,7 -
13.10.2019 14:00:00 24,9 20,9 9 5 SSE 1032,2 -
13.10.2019 13:00:00 24,4 20,7 9 5 SSE 1033,0 -
13.10.2019 12:00:00 24,3 20,8 8 4 SSE 1033,5 -
13.10.2019 11:00:00 24,1 21,0 5 3 SE 1033,6 -
13.10.2019 10:00:00 22,9 21,1 8 4 E 1033,7 -
13.10.2019 09:00:00 20,8 19,6 5 3 NE 1033,9 -
13.10.2019 08:00:00 19,1 18,2 8 4 NNE 1033,5 -
13.10.2019 07:00:00 18,8 17,9 8 4 NNE 1033,2 -
13.10.2019 06:00:00 19,0 18,1 8 4 NNE 1033,3 -
13.10.2019 05:00:00 19,0 18,1 8 4 NNE 1033,5 -
13.10.2019 04:00:00 19,1 18,2 5 3 NE 1033,4 -
13.10.2019 03:00:00 18,9 18,0 5 3 NNE 1033,9 -
13.10.2019 02:00:00 19,2 18,2 0 0 N 1034,1 -
13.10.2019 01:00:00 18,9 17,9 2 1 NNE 1034,0 -
13.10.2019 00:00:00 18,3 17,3 0 0 N 1034,2 -
12.10.2019 23:00:00 18,5 17,5 0 0 N 1034,1 -
12.10.2019 22:00:00 18,4 17,5 0 0 N 1033,8 -
12.10.2019 21:00:00 18,9 18,2 0 0 N 1033,4 -
12.10.2019 20:00:00 19,1 17,9 0 0 N 1033,1 -
12.10.2019 19:00:00 21,3 19,4 0 0 N 1032,4 -
12.10.2019 18:00:00 22,8 20,3 0 0 N 1032,1 -
12.10.2019 17:00:00 23,6 19,7 2 1 SSE 1032,3 -
12.10.2019 16:00:00 23,6 19,5 8 4 S 1032,6 -
12.10.2019 15:00:00 24,7 19,2 8 4 SSE 1032,8 -
12.10.2019 14:00:00 24,8 19,1 8 4 SSE 1032,9 -
12.10.2019 13:00:00 24,3 20,2 4 2 S 1033,5 -
12.10.2019 12:00:00 24,5 21,4 4 2 SSE 1033,8 -
12.10.2019 11:00:00 23,8 21,6 4 2 SE 1034,1 -
12.10.2019 10:00:00 21,9 20,3 0 0 N 1034,2 -
12.10.2019 09:00:00 20,5 19,1 0 0 N 1033,8 -
12.10.2019 08:00:00 19,6 18,4 0 0 N 1033,3 -
12.10.2019 07:00:00 18,9 17,7 0 0 N 1032,9 -
12.10.2019 06:00:00 19,0 17,6 0 0 N 1033,0 -
12.10.2019 05:00:00 19,3 17,7 0 0 N 1032,9 -
12.10.2019 04:00:00 19,5 17,9 0 0 N 1032,9 -
12.10.2019 03:00:00 19,4 17,8 0 0 N 1033,3 -
12.10.2019 02:00:00 19,0 17,6 0 0 N 1033,3 -
12.10.2019 01:00:00 19,1 17,7 0 0 N 1033,1 -
12.10.2019 00:00:00 19,1 17,7 4 2 NNE 1032,7 -
11.10.2019 23:00:00 18,9 17,3 0 0 N 1032,3 -
11.10.2019 22:00:00 19,4 17,7 2 1 NNE 1031,7 -
11.10.2019 21:00:00 19,8 18,1 2 1 NE 1031,1 -
11.10.2019 20:00:00 20,0 17,3 0 0 N 1030,7 -
11.10.2019 19:00:00 22,3 18,2 0 0 N 1030,1 -
11.10.2019 18:00:00 23,9 18,3 0 0 N 1029,7 -
11.10.2019 17:00:00 24,8 15,1 2 1 SO 1029,6 -
11.10.2019 16:00:00 24,7 17,6 8 4 SO 1029,8 -
11.10.2019 15:00:00 24,6 18,7 11 6 SO 1029,9 -
11.10.2019 14:00:00 24,8 19,3 8 4 OSO 1030,3 -
11.10.2019 13:00:00 24,2 19,2 4 2 SSO 1030,7 -
11.10.2019 12:00:00 24,2 18,5 2 1 SSO 1031,0 -
11.10.2019 11:00:00 23,3 19,6 2 1 OSO 1030,9 -
11.10.2019 10:00:00 21,4 19,3 2 1 SSO 1031,1 -
11.10.2019 09:00:00 20,7 19,1 0 0 N 1030,7 -
11.10.2019 08:00:00 18,4 17,2 8 4 NNE 1030,2 -
11.10.2019 07:00:00 17,9 16,7 4 2 NNE 1029,9 -
11.10.2019 06:00:00 18,0 16,8 0 0 N 1029,9 -
11.10.2019 05:00:00 17,4 16,5 2 1 ENE 1029,7 -
11.10.2019 04:00:00 17,6 17,1 0 0 N 1029,6 -
11.10.2019 03:00:00 17,4 16,7 0 0 N 1029,7 -
11.10.2019 02:00:00 17,0 16,1 0 0 N 1029,5 -
11.10.2019 01:00:00 17,5 16,3 0 0 N 1029,4 -
11.10.2019 00:00:00 18,5 17,1 0 0 N 1029,2 -
10.10.2019 23:00:00 19,4 17,7 0 0 N 1028,7 -
10.10.2019 22:00:00 21,0 17,3 0 0 N 1027,8 -
10.10.2019 21:00:00 21,1 17,8 0 0 N 1027,1 -
10.10.2019 20:00:00 22,1 18,0 0 0 N 1025,9 -
10.10.2019 19:00:00 23,0 20,1 16 9 NNO 1025,1 -
10.10.2019 18:00:00 24,6 19,8 22 12 NNO 1024,6 -
10.10.2019 17:00:00 26,0 18,8 21 11 NNO 1024,3 -
10.10.2019 16:00:00 26,9 19,5 15 8 NNO 1024,2 -
10.10.2019 15:00:00 26,8 19,9 18 10 NNO 1024,0 -
10.10.2019 14:00:00 27,1 19,6 13 7 NNO 1024,1 -
10.10.2019 13:00:00 27,0 19,0 5 3 E 1024,8 -
10.10.2019 12:00:00 25,6 15,8 2 1 S 1025,6 -
10.10.2019 11:00:00 24,0 17,4 5 3 SSO 1026,4 -
10.10.2019 10:00:00 23,3 19,4 0 0 N 1026,5 -
10.10.2019 09:00:00 21,6 19,1 0 0 N 1026,6 -
10.10.2019 08:00:00 18,1 16,4 0 0 N 1026,4 -
10.10.2019 07:00:00 19,0 15,2 4 2 NE 1025,6 -
10.10.2019 06:00:00 21,3 16,2 2 1 N 1025,7 -
10.10.2019 05:00:00 19,4 16,7 0 0 N 1025,7 -
10.10.2019 04:00:00 19,1 17,2 0 0 N 1026,2 -
10.10.2019 03:00:00 20,3 17,4 2 1 E 1026,3 -
10.10.2019 02:00:00 20,2 16,4 0 0 N 1026,5 -
10.10.2019 01:00:00 21,4 16,9 0 0 N 1026,3 -
10.10.2019 00:00:00 22,2 18,1 11 6 N 1026,2 -
09.10.2019 23:00:00 21,2 18,5 4 2 NNE 1026,5 -
09.10.2019 22:00:00 20,0 18,2 2 1 NNE 1026,4 -
09.10.2019 21:00:00 20,8 18,3 0 0 N 1026,2 -
09.10.2019 20:00:00 21,6 18,1 0 0 N 1025,9 -
09.10.2019 19:00:00 23,0 17,8 4 2 O 1025,1 -
09.10.2019 18:00:00 24,6 16,5 0 0 N 1024,6 -
09.10.2019 17:00:00 27,4 15,0 11 6 E 1024,0 -
09.10.2019 16:00:00 27,3 16,8 9 5 E 1024,3 -
09.10.2019 15:00:00 27,3 16,8 9 5 OSO 1025,2 -
09.10.2019 14:00:00 26,5 20,1 9 5 E 1025,6 -
09.10.2019 13:00:00 23,5 19,4 5 3 SSE 1027,4 -
09.10.2019 12:00:00 22,5 20,5 4 2 SSE 1028,8 -

tt = Temperatura
td = dewpoint
ff = velocità del vento
dd = direzione del vento
ppp = reduced air pressure
rr = precipitazioni

Stazioni seguenti

WeatherPro
AMSI
MeteoEarth